Погода в Елатьме

Погода в Елатьме : погода сейчас, прогноз погоды и архив. Всё, что Вы хотите узнать о погоде в Елатьме!

Поиск расширенной информации на нашем сайте:

Другие новости

Новости СМИ2

Главная страница сайта

Новости сайта

03.07.2017

Напоминаем, что на нашем специализированном сайте Метеоцентр.Азия вы можете получить высокодетализированные автоматические прогнозы погоды по пунктам России, СНГ и мира в авиационном формате (включающие направление и скорость ветра, видимость, явления погоды, количество и форму облачности, нижнюю и верхнюю границу облачности).

Рекомендуем: Домашний текстиль ивановский текстиль. Покупкапродажа всего на свете.

Погода в Елатьме - сегодня

Время (UTC), дата Ветер
(°,м/с) 
Видим.   Явления Облачность Т
(°С)
Тd
(°С)
f(%) Тe
(°С)
Pmin
(гПа)
dP
(гПа)
Po
(мм)
O2
(г/м3)
Тmin Tmax R s Состояние
почвы
18 18.01.18 170 (Ю) 10 км  позёмок  10/10 600 м 
[Sc]
-7.5 -12.4 68 -10  1018.7  0.4  751  312           
21 18.01.18 160 (Ю) 10 км  позёмок  10/10 600 м 
[Sc]
-7.3 -12.8 65 -9  1019.5  0.8  751  312           
00 19.01.18 160 (Ю) 10 км    5/1 600 м верхняя 
[Sc|Cs]
-10.5 -17.8 55 -12  1020.5  0.8  752  317           
03 19.01.18 150 (ЮВ) 10 км  позёмок  8/0 верхняя 
[Cs]
-13.3 -19.5 60 -17  1021.4  0.7  753  320  -13.3      равномерный
сухой снег
100% 
06 19.01.18 160 (Ю) 10 км  позёмок  6/0 верхняя 
[Cs]
-13.6 -21 54 -16  1021.7  0.3  753  321  -13.8         
09 19.01.18 170 (Ю) 10 км  позёмок  8/1 600 м верхняя 
[Sc|Cs]
-9.6 -21.2 38 -11  1022  0.5  753  316           
12 19.01.18 140 (ЮВ) 10 км  позёмок  5/0 верхняя 
[Ci fib]
-7.7 -21.3 33 -10  1022.3  0.4  753  314           
15 19.01.18 110 (В) 10 км  позёмок  1/1 600 м 
[Sc]
-11.3 -19.2 52 -14  1023.1  0.6  754  318    -7.5       
18 19.01.18 130 (ЮВ) 10 км    5/0 верхняя 
[Ci fib]
-11.6 -18.9 55 -15  1023.3  0.1  754  319           
21 19.01.18 130 (ЮВ) 10 км    3/0 верхняя 
[Ci fib]
-12.3 -16.8 69 -16  1022.5  -0.8  753  319           
00 20.01.18 140 (ЮВ) 10 км  позёмок  10/10 600 м 
[Sc]
-12.9 -15.9 78 -17  1020.8  -1.7  752  319           
03 20.01.18 120 (ЮВ) 4000 м  слаб. ливневой снег  10/10 300 м кучево-дожд. 
[Cb cap]
-10.8 -12.5 87 -14  1018.5  -2.1  751  316  -13.1    0.3  равномерный
сухой снег
100% 
06 20.01.18 130 (ЮВ) 1000 м  ливневой снег  10/10 300 м кучево-дожд. 
[Cb cap]
-9.3 -10.7 90 -13  1017.3  -1.1  750  314           
09 20.01.18 140 (ЮВ) 2000 м  снег{ливн. осадки}  10/0 средняя 
[As op]
-7.1 -8.9 87 -10  1016.1  -1  749  311           
12 20.01.18 180 (Ю) 4000 м  слаб. снег{ливн. осадки}  10/8 600 м средняя 
[Sc|As trans]
-6.9 -9 85 -10  1015.5  -0.6  749  310           
15 20.01.18 150 (ЮВ) 4000 м  слаб. снег  10/3 600 м средняя 
[Sc|Ac As]
-8.4 -10.3 86 -11  1015.3  -0.3  748  312    -6.7     
18 20.01.18 150 (ЮВ) 4000 м  слаб. снег  10/0 средняя 
[As op]
-7.9 -9.4 89 -9  1014.9  -0.3  748  311           
21 20.01.18 160 (Ю) 4000 м  слаб. снег  10/0 средняя 
[As op]
-6.8 -8.2 90 -8  1014.8  0.1  748  310           
00 21.01.18 170 (Ю) 4000 м  дымка{снег}  10/6 600 м средняя 
[Sc|As op]
-4.8 -5.6 94 -6  1014.4  -0.2  748  307           
03 21.01.18 150 (ЮВ) 4000 м  дымка  10/10 600 м 
[Sc]
-4.1 -5.1 93 -5  1014.4  748  306  -8.4    равномерный
сухой снег
100% 
06 21.01.18 130 (ЮВ) 4000 м  слаб. снег  10/0 средняя 
[As op]
-5.3 -6.5 91 -8  1014.4  -0.1  748  308           
09 21.01.18 130 (ЮВ) 4000 м  слаб. снег  10/0 средняя 
[As op]
-5.2 -6.8 88 -8  1013.4  -1  747  308           
12 21.01.18 100 (В) 1000 м  снег  10/0 средняя 
[As op]
-5.3 -6.1 94 -8  1011.4  -2  746  307           
15 21.01.18 110 (В) 1000 м  снег  10/0 средняя 
[As op]
-5.7 -6.3 96 -7  1009.8  -1.6  744  307    -4.1     
18 21.01.18 110 (В) 1000 м  снег  10/0 средняя 
[As op]
-5.9 -6.5 96 -7  1007.2  -2.5  742  306           
Время (UTC), дата Ветер
(°,м/с) 
Видим.   Явления Облачность Т
(°С)
Тd
(°С)
f(%) Тe
(°С)
Pmin
(гПа)
dP
(гПа)
Po
(мм)
O2
(г/м3)
Тmin Tmax R s Состояние
почвы

Для получения пояснительной информации подведите курсор к названию столбца.

ПОГОДА в Елатьме - архив

Всё, что Вы хотите узнать о погоде в Елатьме - удобно и подробно!

Выберите нужную дату (начиная с 1 января 2015* года) и нажмите кнопку "Найти".
Будут отображены архивные сводки погоды по пункту Елатьма, начиная с указанной даты.


Отображать данные в формате CSV (для использования в таблицах Excel)


Внимание! Наш архив погоды предназначен исключительно для личного некоммерческого использования в познавательных целях. Если Вам необходимы официальные справки о состоянии погоды (для производственных, юридических, коммерческих и т.п. целей), обращайтесь в органы Росгидромета.

*Примечание: данная дата относится к архиву по метеостанциям СССР (Россия, СНГ, Балтия).
Архив по метеостанциям Зарубежной Европы и Азии (кроме Китая) хранится 10 дней, по другим регионам земного шара (Китай, Африка, Америка, Австралия, Океания) - 1 день.

Елатьма - район местоположения метеостанции


Название, широта, долгота, высота метеостанции:
Елатьма 54.9°ш. 41.8°д. 136 м над ур. моря [Российская Федерация]

Дополнительная информация

В oтличие oт бoльшинства пoгoдных сайтoв мы публикуем пoдрoбную метеoинфoрмацию в детальнoм прoфессиoнальнoм фoрмате.

Характеристики температуры и влажнoсти вoздуха измеряются на высoте 2 м в тени вдали oт зданий и деревьев.
Скoрoсть ветра измеряется на высoте 10 м (на урoвне рoста челoвека скoрoсть ветра ниже в 1.5-2 раза). Если метеoстанция нахoдится в гoрoде или в лесу, тo скoрoсть ветра занижена на 2-4 м/с пo сравнению с oткрытым местoм. Скoрoсть ветра над акватoриями крупных рек и oзёр, а также на вершинах хoлмoв на 2-5 м/с выше, чем в oбычных услoвиях.
Атмoсфернoе давление в разных тoчках местнoсти мoжет значительнo oтличаться oт давления на метеoстанции, в зависимoсти oт услoвий рельефа (при пoдъёме на 10 м давление пoнижается примернo на 1 мм рт.ст.).